Flag for Nicaragua Weather past 2 weeks in Masaya, Nicaragua

Now
75 °F

Passing clouds.


Feels Like: 77 °F
Forecast: 68 / 85 °F
Wind: 7 mph from Southeast

Location: Managua A. C. Sandino

Current Time: Jan 28, 2015 at 3:30:24 AM

Latest Report: Jan 27, 2015 at 11:00 PM


Visibility: N/A

Pressure: 29.92 "Hg

Humidity: 74%

Dew point: 66 °F

Location of MasayaLocation

Historic Weather in Masaya — Graph

°F

Masaya temperature yesterday

Maximum temperature yesterday: 91 °F (at 12:00 PM)
Minimum temperature yesterday: 72 °F (at 5:00 AM)
Average temperature yesterday: 81 °F

Past Weeks' High & Low Weather Summary

 TemperatureHumidityPressure
High91 °F (Jan 13, 3:00 PM)94% (Jan 15, 4:00 AM)30.01 "Hg (Jan 15, 4:00 AM)
Low70 °F (Jan 15, 6:00 AM)34% (Jan 19, 2:00 PM)29.77 "Hg (Jan 25, 4:00 PM)
Average81 °F64%29.90 "Hg
* Reported Jan 12 11:00 PM — Jan 27 11:00 PM, Masaya, Weather by CustomWeather, © 2014

Note: Actual official high and low records may vary slightly from our data, if they occured in-between our weather recording intervals... More about our weather records

Advertising

Masaya weather history for previous 24 hours

 ConditionsComfort  
Time TempWeatherWind HumidityBarometerVisibility
11:00 PM
Jan 27
75 °FPassing clouds.7 mph74%29.92 "HgN/A
10:00 PM75 °FPassing clouds.7 mph74%29.95 "HgN/A
9:00 PM77 °FPassing clouds.7 mph69%29.95 "HgN/A
8:00 PM79 °FPassing clouds.7 mph65%29.92 "HgN/A
7:00 PM82 °FPassing clouds.9 mph55%29.89 "HgN/A
4:00 PM90 °FPassing clouds.16 mph52%29.83 "HgN/A
3:00 PM91 °FPassing clouds.18 mph46%29.83 "HgN/A
2:00 PM91 °FPassing clouds.23 mph46%29.83 "HgN/A
1:00 PM91 °FPassing clouds.18 mph44%29.86 "HgN/A
12:00 PM91 °FPassing clouds.18 mph46%29.89 "HgN/A
11:00 AM90 °FPassing clouds.14 mph46%29.92 "HgN/A
10:00 AM86 °FPassing clouds.14 mph52%29.95 "HgN/A
9:00 AM82 °FPassing clouds.9 mph51%29.98 "HgN/A
8:00 AM79 °FPassing clouds.7 mph61%29.95 "HgN/A
7:00 AM73 °FPassing clouds.5 mph74%29.95 "HgN/A
6:00 AM72 °FPassing clouds.5 mph83%29.92 "HgN/A
5:00 AM72 °FPassing clouds.5 mph83%29.92 "HgN/A
4:00 AM73 °FPassing clouds.7 mph78%29.89 "HgN/A
3:00 AM75 °FPassing clouds.7 mph78%29.89 "HgN/A
Weather by CustomWeather, © 2014

See weather overviewHow to use our weather pages